"datetime","temp","dp","rain_mm","uv","solar","mb","wind_mph","gust_mph","windchill","rh"
"2021-10-05 00:00:00",13.5,13.0,0.0,0.0,0,1001.6,1,3,"",97
"2021-10-05 00:01:00",13.5,13.0,0.0,0.0,0,1001.6,3,6,"",97
"2021-10-05 00:02:00",13.5,13.0,0.0,0.0,0,1001.4,2,7,"",97
"2021-10-05 00:03:00",13.4,12.9,0.0,0.0,0,1001.5,3,6,"",97
"2021-10-05 00:04:00",13.4,12.9,0.0,0.0,0,1001.4,2,3,"",97
"2021-10-05 00:05:00",13.4,12.9,0.0,0.0,0,1001.4,3,8,"",97
"2021-10-05 00:06:00",13.4,12.9,0.0,0.0,0,1001.3,3,8,"",97
"2021-10-05 00:07:00",13.5,13.0,0.0,0.0,0,1001.3,3,6,"",97
"2021-10-05 00:08:00",13.5,13.0,0.0,0.0,0,1001.3,2,4,"",97
"2021-10-05 00:09:00",13.5,13.0,0.0,0.0,0,1001.3,4,8,"",97
"2021-10-05 00:10:00",13.5,13.0,0.0,0.0,0,1001.3,2,5,"",97
"2021-10-05 00:11:00",13.5,13.0,0.0,0.0,0,1001.2,2,5,"",97
"2021-10-05 00:12:00",13.5,13.0,0.0,0.0,0,1001.2,4,9,"",97
"2021-10-05 00:13:00",13.5,13.0,0.0,0.0,0,1001.2,3,6,"",97
"2021-10-05 00:14:00",13.6,13.1,0.0,0.0,0,1001.1,1,2,"",97
"2021-10-05 00:15:00",13.6,13.1,0.0,0.0,0,1001.1,2,5,"",97
"2021-10-05 00:16:00",13.6,13.0,0.0,0.0,0,1001.0,2,4,"",96
"2021-10-05 00:17:00",13.6,13.0,0.0,0.0,0,1001.0,1,2,"",96
"2021-10-05 00:18:00",13.6,13.0,0.0,0.0,0,1001.0,2,4,"",96
"2021-10-05 00:19:00",13.6,13.0,0.0,0.0,0,1000.9,1,3,"",96
"2021-10-05 00:20:00",13.5,13.0,0.0,0.0,0,1000.9,2,9,"",97
"2021-10-05 00:21:00",13.5,13.0,0.0,0.0,0,1000.8,1,2,"",97
"2021-10-05 00:22:00",13.6,13.1,0.0,0.0,0,1000.8,3,5,"",97
"2021-10-05 00:23:00",13.6,13.0,0.0,0.0,0,1000.9,4,7,"",96
"2021-10-05 00:24:00",13.6,13.0,0.0,0.0,0,1000.8,5,9,"",96
"2021-10-05 00:25:00",13.6,13.0,0.0,0.0,0,1000.8,2,5,"",96
"2021-10-05 00:26:00",13.6,13.0,0.0,0.0,0,1000.8,1,4,"",96
"2021-10-05 00:27:00",13.6,13.0,0.0,0.0,0,1000.8,1,3,"",96
"2021-10-05 00:28:00",13.7,13.1,0.0,0.0,0,1000.8,4,8,"",96
"2021-10-05 00:29:00",13.6,13.0,0.0,0.0,0,1000.8,3,8,"",96
"2021-10-05 00:30:00",13.7,13.1,0.0,0.0,0,1000.8,2,5,"",96
"2021-10-05 00:31:00",13.7,13.1,0.0,0.0,0,1000.8,4,7,"",96
"2021-10-05 00:32:00",13.7,13.1,0.0,0.0,0,1000.7,2,3,"",96
"2021-10-05 00:33:00",13.7,13.1,0.0,0.0,0,1000.7,0,1,"",96
"2021-10-05 00:34:00",13.7,13.1,0.0,0.0,0,1000.7,1,4,"",96
"2021-10-05 00:35:00",13.6,13.0,0.0,0.0,0,1000.7,2,3,"",96
"2021-10-05 00:36:00",13.6,13.0,0.0,0.0,0,1000.7,2,7,"",96
"2021-10-05 00:37:00",13.6,13.0,0.0,0.0,0,1000.6,3,5,"",96
"2021-10-05 00:38:00",13.6,13.0,0.0,0.0,0,1000.6,3,5,"",96
"2021-10-05 00:39:00",13.7,13.1,0.0,0.0,0,1000.5,4,5,"",96
"2021-10-05 00:40:00",13.7,13.1,0.0,0.0,0,1000.6,1,2,"",96
"2021-10-05 00:41:00",13.7,13.1,0.0,0.0,0,1000.6,3,6,"",96
"2021-10-05 00:42:00",13.7,13.1,0.0,0.0,0,1000.5,2,5,"",96
"2021-10-05 00:43:00",13.7,13.1,0.0,0.0,0,1000.4,2,2,"",96
"2021-10-05 00:44:00",13.7,13.1,0.0,0.0,0,1000.5,2,12,"",96
"2021-10-05 00:45:00",13.7,12.9,0.0,0.0,0,1000.4,4,8,"",95
"2021-10-05 00:46:00",13.8,13.0,0.0,0.0,0,1000.5,2,5,"",95
"2021-10-05 00:47:00",13.8,13.0,0.0,0.0,0,1000.4,3,5,"",95
"2021-10-05 00:48:00",13.8,13.0,0.0,0.0,0,1000.4,3,7,"",95
"2021-10-05 00:49:00",13.8,13.0,0.0,0.0,0,1000.4,2,3,"",95
"2021-10-05 00:50:00",13.8,13.0,0.0,0.0,0,1000.4,3,6,"",95
"2021-10-05 00:51:00",13.8,13.0,0.0,0.0,0,1000.4,2,4,"",95
"2021-10-05 00:52:00",13.8,13.0,0.0,0.0,0,1000.4,2,5,"",95
"2021-10-05 00:53:00",13.8,13.0,0.0,0.0,0,1000.4,3,7,"",95
"2021-10-05 00:54:00",13.8,13.0,0.0,0.0,0,1000.4,2,4,"",95
"2021-10-05 00:55:00",13.8,13.0,0.0,0.0,0,1000.3,4,6,"",95
"2021-10-05 00:56:00",13.8,13.0,0.2,0.0,0,1000.2,5,11,"",95
"2021-10-05 00:57:00",13.8,13.0,0.2,0.0,0,1000.2,2,4,"",95
"2021-10-05 00:58:00",13.8,13.0,0.2,0.0,0,1000.2,3,8,"",95
"2021-10-05 00:59:00",13.8,13.0,0.2,0.0,0,1000.2,3,5,"",95
"2021-10-05 01:00:00",13.8,13.0,0.2,0.0,0,1000.2,2,4,"",95
"2021-10-05 01:01:00",13.8,13.0,0.4,0.0,0,1000.2,5,9,"",95
"2021-10-05 01:02:00",13.8,13.0,0.4,0.0,0,1000.2,2,5,"",95
"2021-10-05 01:03:00",13.8,13.0,0.4,0.0,0,1000.1,3,7,"",95
"2021-10-05 01:04:00",13.8,13.0,0.4,0.0,0,1000.1,2,4,"",95
"2021-10-05 01:05:00",13.8,13.0,0.6,0.0,0,1000.1,1,1,"",95
"2021-10-05 01:06:00",13.8,13.0,0.6,0.0,0,1000.2,3,6,"",95
"2021-10-05 01:07:00",13.8,13.2,0.8,0.0,0,1000.2,3,5,"",96
"2021-10-05 01:08:00",13.8,13.2,0.8,0.0,0,1000.1,1,3,"",96
"2021-10-05 01:09:00",13.8,13.2,0.8,0.0,0,1000.1,2,7,"",96
"2021-10-05 01:10:00",13.8,13.2,1.0,0.0,0,1000.1,2,5,"",96
"2021-10-05 01:11:00",13.8,13.2,1.0,0.0,0,1000.0,3,5,"",96
"2021-10-05 01:12:00",13.7,13.1,1.2,0.0,0,1000.0,2,3,"",96
"2021-10-05 01:13:00",13.7,13.1,1.2,0.0,0,1000.0,2,3,"",96
"2021-10-05 01:14:00",13.7,13.1,1.2,0.0,0,1000.0,2,5,"",96
"2021-10-05 01:15:00",13.7,13.1,1.4,0.0,0,1000.0,3,5,"",96
"2021-10-05 01:16:00",13.7,13.1,1.4,0.0,0,999.9,2,5,"",96
"2021-10-05 01:17:00",13.7,13.1,1.6,0.0,0,1000.0,2,4,"",96
"2021-10-05 01:18:00",13.7,13.1,1.8,0.0,0,1000.0,3,6,"",96
"2021-10-05 01:19:00",13.7,13.1,1.8,0.0,0,1000.0,3,6,"",96
"2021-10-05 01:20:00",13.7,13.1,2.0,0.0,0,999.9,2,3,"",96
"2021-10-05 01:21:00",13.7,13.1,2.2,0.0,0,999.9,2,4,"",96
"2021-10-05 01:22:00",13.7,13.1,2.2,0.0,0,999.9,2,3,"",96
"2021-10-05 01:23:00",13.7,13.2,2.4,0.0,0,999.8,3,10,"",97
"2021-10-05 01:24:00",13.7,13.1,2.4,0.0,0,999.8,3,8,"",96
"2021-10-05 01:25:00",13.7,13.2,2.4,0.0,0,999.8,4,6,"",97
"2021-10-05 01:26:00",13.7,13.2,2.4,0.0,0,999.8,2,4,"",97
"2021-10-05 01:27:00",13.7,13.2,2.6,0.0,0,999.7,3,7,"",97
"2021-10-05 01:28:00",13.7,13.2,2.6,0.0,0,999.5,3,4,"",97
"2021-10-05 01:29:00",13.7,13.2,2.6,0.0,0,999.5,2,9,"",97
"2021-10-05 01:30:00",13.7,13.2,2.8,0.0,0,999.4,3,9,"",97
"2021-10-05 01:31:00",13.7,13.2,2.8,0.0,0,999.4,3,5,"",97
"2021-10-05 01:32:00",13.7,13.2,2.8,0.0,0,999.4,2,5,"",97
"2021-10-05 01:33:00",13.7,13.2,3.0,0.0,0,999.4,2,5,"",97
"2021-10-05 01:34:00",13.7,13.2,3.0,0.0,0,999.4,3,5,"",97
"2021-10-05 01:35:00",13.7,13.2,3.0,0.0,0,999.4,4,9,"",97
"2021-10-05 01:36:00",13.7,13.2,3.0,0.0,0,999.4,3,8,"",97
"2021-10-05 01:37:00",13.7,13.2,3.0,0.0,0,999.4,2,6,"",97
"2021-10-05 01:38:00",13.7,13.2,3.2,0.0,0,999.4,4,6,"",97
"2021-10-05 01:39:00",13.7,13.2,3.2,0.0,0,999.3,2,5,"",97
"2021-10-05 01:40:00",13.7,13.2,3.2,0.0,0,999.2,3,7,"",97
"2021-10-05 01:41:00",13.7,13.2,3.4,0.0,0,999.2,4,7,"",97
"2021-10-05 01:42:00",13.7,13.2,3.4,0.0,0,999.1,4,7,"",97
"2021-10-05 01:43:00",13.7,13.2,3.4,0.0,0,999.2,3,6,"",97
"2021-10-05 01:44:00",13.7,13.2,3.4,0.0,0,999.2,4,10,"",97
"2021-10-05 01:45:00",13.7,13.2,3.6,0.0,0,999.1,4,6,"",97
"2021-10-05 01:46:00",13.7,13.2,3.6,0.0,0,999.1,2,3,"",97
"2021-10-05 01:47:00",13.7,13.2,3.8,0.0,0,999.1,4,9,"",97
"2021-10-05 01:48:00",13.7,13.2,3.8,0.0,0,999.0,3,7,"",97
"2021-10-05 01:49:00",13.7,13.2,4.0,0.0,0,999.0,4,8,"",97
"2021-10-05 01:50:00",13.7,13.2,4.0,0.0,0,998.9,4,7,"",97
"2021-10-05 01:51:00",13.7,13.2,4.0,0.0,0,998.8,3,5,"",97
"2021-10-05 01:52:00",13.7,13.2,4.2,0.0,0,998.9,3,7,"",97
"2021-10-05 01:53:00",13.7,13.2,4.2,0.0,0,999.0,4,9,"",97
"2021-10-05 01:54:00",13.7,13.2,4.2,0.0,0,998.9,4,7,"",97
"2021-10-05 01:55:00",13.7,13.2,4.4,0.0,0,998.8,5,11,"",97
"2021-10-05 01:56:00",13.7,13.2,4.4,0.0,0,998.8,3,6,"",97
"2021-10-05 01:57:00",13.7,13.2,4.6,0.0,0,998.7,4,9,"",97
"2021-10-05 01:58:00",13.8,13.3,4.6,0.0,0,998.7,3,7,"",97
"2021-10-05 01:59:00",13.8,13.3,4.6,0.0,0,998.7,3,5,"",97
"2021-10-05 02:00:00",13.8,13.3,4.8,0.0,0,998.7,3,7,"",97
"2021-10-05 02:01:00",13.7,13.2,4.8,0.0,0,998.6,3,6,"",97
"2021-10-05 02:02:00",13.8,13.3,4.8,0.0,0,998.7,4,7,"",97
"2021-10-05 02:03:00",13.8,13.3,5.0,0.0,0,998.6,4,7,"",97
"2021-10-05 02:04:00",13.8,13.3,5.0,0.0,0,998.7,3,7,"",97
"2021-10-05 02:05:00",13.8,13.3,5.0,0.0,0,998.6,5,11,"",97
"2021-10-05 02:06:00",13.8,13.3,5.2,0.0,0,998.5,3,7,"",97
"2021-10-05 02:07:00",13.8,13.3,5.2,0.0,0,998.6,4,12,"",97
"2021-10-05 02:08:00",13.8,13.3,5.4,0.0,0,998.6,3,6,"",97
"2021-10-05 02:09:00",13.8,13.3,5.4,0.0,0,998.6,4,9,"",97
"2021-10-05 02:10:00",13.8,13.3,5.4,0.0,0,998.5,3,6,"",97
"2021-10-05 02:11:00",13.8,13.3,5.4,0.0,0,998.5,1,6,"",97
"2021-10-05 02:12:00",13.8,13.3,5.4,0.0,0,998.5,4,9,"",97
"2021-10-05 02:13:00",13.8,13.3,5.6,0.0,0,998.4,5,9,"",97
"2021-10-05 02:14:00",13.8,13.3,5.6,0.0,0,998.3,3,8,"",97
"2021-10-05 02:15:00",13.8,13.3,5.8,0.0,0,998.3,2,4,"",97
"2021-10-05 02:16:00",13.8,13.3,5.8,0.0,0,998.3,3,6,"",97
"2021-10-05 02:17:00",13.8,13.3,5.8,0.0,0,998.1,4,6,"",97
"2021-10-05 02:18:00",13.8,13.3,6.0,0.0,0,998.1,2,5,"",97
"2021-10-05 02:19:00",13.8,13.3,6.0,0.0,0,998.1,2,3,"",97
"2021-10-05 02:20:00",13.8,13.3,6.0,0.0,0,998.0,1,3,"",97
"2021-10-05 02:21:00",13.8,13.3,6.2,0.0,0,998.0,1,3,"",97
"2021-10-05 02:22:00",13.8,13.3,6.2,0.0,0,997.9,3,9,"",97
"2021-10-05 02:23:00",13.8,13.3,6.2,0.0,0,997.9,4,9,"",97
"2021-10-05 02:24:00",13.8,13.3,6.4,0.0,0,997.8,3,9,"",97
"2021-10-05 02:25:00",13.8,13.3,6.4,0.0,0,997.8,2,6,"",97
"2021-10-05 02:26:00",13.8,13.3,6.4,0.0,0,997.7,3,8,"",97
"2021-10-05 02:27:00",13.8,13.3,6.6,0.0,0,997.6,4,9,"",97
"2021-10-05 02:28:00",13.8,13.3,6.6,0.0,0,997.6,2,4,"",97
"2021-10-05 02:29:00",13.8,13.3,6.6,0.0,0,997.7,4,9,"",97
"2021-10-05 02:30:00",13.8,13.3,6.6,0.0,0,997.5,4,9,"",97
"2021-10-05 02:31:00",13.8,13.3,6.6,0.0,0,997.4,2,5,"",97
"2021-10-05 02:32:00",13.8,13.3,6.6,0.0,0,997.3,2,3,"",97
"2021-10-05 02:33:00",13.8,13.3,6.6,0.0,0,997.2,4,8,"",97
"2021-10-05 02:34:00",13.8,13.3,6.8,0.0,0,997.1,5,12,"",97
"2021-10-05 02:35:00",13.8,13.3,6.8,0.0,0,997.2,4,11,"",97
"2021-10-05 02:36:00",13.8,13.3,6.8,0.0,0,997.2,2,6,"",97
"2021-10-05 02:37:00",13.8,13.3,6.8,0.0,0,997.0,3,9,"",97
"2021-10-05 02:38:00",13.8,13.3,6.8,0.0,0,997.0,4,10,"",97
"2021-10-05 02:39:00",13.8,13.3,6.8,0.0,0,996.9,5,13,"",97
"2021-10-05 02:40:00",13.8,13.3,6.8,0.0,0,997.0,7,12,"",97
"2021-10-05 02:41:00",13.8,13.3,6.8,0.0,0,997.0,4,9,"",97
"2021-10-05 02:42:00",13.8,13.3,6.8,0.0,0,996.9,4,8,"",97
"2021-10-05 02:43:00",13.8,13.3,6.8,0.0,0,996.9,4,9,"",97
"2021-10-05 02:44:00",13.8,13.3,6.8,0.0,0,997.0,4,7,"",97
"2021-10-05 02:45:00",13.8,13.3,6.8,0.0,0,997.0,4,7,"",97
"2021-10-05 02:46:00",13.8,13.3,7.0,0.0,0,997.1,6,9,"",97
"2021-10-05 02:47:00",13.8,13.3,7.0,0.0,0,997.1,4,8,"",97
"2021-10-05 02:48:00",13.9,13.4,7.0,0.0,0,997.1,5,9,"",97
"2021-10-05 02:49:00",13.9,13.4,7.0,0.0,0,997.2,4,8,"",97
"2021-10-05 02:50:00",13.9,13.4,7.0,0.0,0,997.4,4,10,"",97
"2021-10-05 02:51:00",13.9,13.4,7.0,0.0,0,997.5,3,7,"",97
"2021-10-05 02:52:00",13.9,13.4,7.0,0.0,0,997.6,3,5,"",97
"2021-10-05 02:53:00",13.9,13.4,7.2,0.0,0,997.6,1,1,"",97
"2021-10-05 02:54:00",13.9,13.4,7.4,0.0,0,997.6,2,5,"",97
"2021-10-05 02:55:00",13.9,13.4,7.4,0.0,0,997.8,2,3,"",97
"2021-10-05 02:56:00",13.9,13.4,7.4,0.0,0,997.9,2,4,"",97
"2021-10-05 02:57:00",13.9,13.4,7.6,0.0,0,998.2,1,2,"",97
"2021-10-05 02:58:00",13.9,13.4,7.6,0.0,0,998.3,2,6,"",97
"2021-10-05 02:59:00",13.9,13.4,8.2,0.0,0,998.2,2,4,"",97
"2021-10-05 03:00:00",13.9,13.4,8.4,0.0,0,998.2,2,3,"",97
"2021-10-05 03:01:00",13.9,13.4,8.6,0.0,0,998.2,3,6,"",97
"2021-10-05 03:02:00",13.9,13.4,8.8,0.0,0,998.3,1,4,"",97
"2021-10-05 03:03:00",13.8,13.3,9.0,0.0,0,998.2,2,4,"",97
"2021-10-05 03:04:00",13.8,13.3,9.2,0.0,0,998.2,1,3,"",97
"2021-10-05 03:05:00",13.8,13.3,9.4,0.0,0,998.2,1,3,"",97
"2021-10-05 03:06:00",13.7,13.2,9.8,0.0,0,998.2,0,2,"",97
"2021-10-05 03:07:00",13.7,13.2,10.0,0.0,0,998.2,0,1,"",97
"2021-10-05 03:08:00",13.6,13.1,10.4,0.0,0,998.1,1,1,"",97
"2021-10-05 03:09:00",13.6,13.1,11.0,0.0,0,998.1,0,1,"",97
"2021-10-05 03:10:00",13.6,13.1,11.4,0.0,0,998.1,1,1,"",97
"2021-10-05 03:11:00",13.5,13.0,11.8,0.0,0,998.1,1,2,"",97
"2021-10-05 03:12:00",13.5,13.0,12.0,0.0,0,998.1,2,4,"",97
"2021-10-05 03:13:00",13.5,13.0,12.2,0.0,0,998.2,1,3,"",97
"2021-10-05 03:14:00",13.4,12.9,12.4,0.0,0,998.2,2,3,"",97
"2021-10-05 03:15:00",13.4,12.9,12.6,0.0,0,998.3,1,3,"",97
"2021-10-05 03:16:00",13.4,12.9,12.8,0.0,0,998.3,1,2,"",97
"2021-10-05 03:17:00",13.4,12.9,13.0,0.0,0,998.3,1,2,"",97
"2021-10-05 03:18:00",13.4,12.9,13.2,0.0,0,998.4,1,2,"",97
"2021-10-05 03:19:00",13.4,12.9,13.4,0.0,0,998.4,1,2,"",97
"2021-10-05 03:20:00",13.4,12.9,13.6,0.0,0,998.3,1,2,"",97
"2021-10-05 03:21:00",13.4,12.9,13.8,0.0,0,998.2,1,3,"",97
"2021-10-05 03:22:00",13.3,12.8,14.0,0.0,0,998.1,1,2,"",97
"2021-10-05 03:23:00",13.3,12.8,14.0,0.0,0,997.8,1,3,"",97
"2021-10-05 03:24:00",13.3,12.8,14.2,0.0,0,997.9,1,3,"",97
"2021-10-05 03:25:00",13.3,12.8,14.4,0.0,0,997.7,0,1,"",97
"2021-10-05 03:26:00",13.3,12.8,14.6,0.0,0,997.5,1,2,"",97
"2021-10-05 03:27:00",13.3,12.8,14.6,0.0,0,997.4,0,1,"",97
"2021-10-05 03:28:00",13.3,12.8,14.6,0.0,0,997.3,0,1,"",97
"2021-10-05 03:29:00",13.2,12.7,14.8,0.0,0,997.4,0,1,"",97
"2021-10-05 03:30:00",13.3,12.8,14.8,0.0,0,997.4,1,1,"",97
"2021-10-05 03:31:00",13.2,12.7,14.8,0.0,0,997.5,0,1,"",97
"2021-10-05 03:32:00",13.2,12.7,14.8,0.0,0,997.4,0,1,"",97
"2021-10-05 03:33:00",13.2,12.7,15.0,0.0,0,997.3,0,1,"",97
"2021-10-05 03:34:00",13.2,12.7,15.0,0.0,0,997.4,1,1,"",97
"2021-10-05 03:35:00",13.2,12.7,15.0,0.0,0,997.5,0,1,"",97
"2021-10-05 03:36:00",13.2,12.7,15.0,0.0,0,997.5,0,1,"",97
"2021-10-05 03:37:00",13.2,12.7,15.0,0.0,0,997.5,1,2,"",97
"2021-10-05 03:38:00",13.1,12.6,15.0,0.0,0,997.5,0,1,"",97
"2021-10-05 03:39:00",13.2,12.7,15.0,0.0,0,997.4,0,1,"",97
"2021-10-05 03:40:00",13.1,12.6,15.2,0.0,0,997.4,0,1,"",97
"2021-10-05 03:41:00",13.1,12.6,15.2,0.0,0,997.3,1,2,"",97
"2021-10-05 03:42:00",13.1,12.6,15.4,0.0,0,997.2,0,1,"",97
"2021-10-05 03:43:00",13.1,12.6,15.6,0.0,0,997.2,0,1,"",97
"2021-10-05 03:44:00",13.1,12.6,15.8,0.0,0,997.1,0,0,"",97
"2021-10-05 03:45:00",13.1,12.6,15.8,0.0,0,997.1,0,1,"",97
"2021-10-05 03:46:00",13.1,12.6,16.0,0.0,0,997.1,1,2,"",97
"2021-10-05 03:47:00",13.1,12.6,16.0,0.0,0,997.2,1,2,"",97
"2021-10-05 03:48:00",13.0,12.5,16.2,0.0,0,997.1,0,1,"",97
"2021-10-05 03:49:00",13.0,12.5,16.2,0.0,0,997.1,0,1,"",97
"2021-10-05 03:50:00",13.0,12.5,16.2,0.0,0,997.0,0,1,"",97
"2021-10-05 03:51:00",13.0,12.5,16.2,0.0,0,997.1,1,1,"",97
"2021-10-05 03:52:00",13.0,12.5,16.2,0.0,0,997.1,1,2,"",97
"2021-10-05 03:53:00",12.9,12.4,16.2,0.0,0,997.1,1,2,"",97
"2021-10-05 03:54:00",12.9,12.4,16.2,0.0,0,997.1,0,1,"",97
"2021-10-05 03:55:00",12.9,12.4,16.2,0.0,0,997.1,1,1,"",97
"2021-10-05 03:56:00",12.9,12.4,16.2,0.0,0,997.1,1,1,"",97
"2021-10-05 03:57:00",12.9,12.4,16.2,0.0,0,997.1,1,1,"",97
"2021-10-05 03:58:00",12.9,12.4,16.2,0.0,0,997.1,1,2,"",97
"2021-10-05 03:59:00",12.9,12.4,16.2,0.0,0,997.1,1,2,"",97
"2021-10-05 04:00:00",12.8,12.3,16.2,0.0,0,997.1,1,2,"",97
"2021-10-05 04:01:00",12.8,12.3,16.2,0.0,0,997.1,1,2,"",97
"2021-10-05 04:02:00",12.8,12.3,16.4,0.0,0,997.1,1,1,"",97
"2021-10-05 04:03:00",12.8,12.3,16.4,0.0,0,997.1,1,1,"",97
"2021-10-05 04:04:00",12.8,12.3,16.4,0.0,0,997.1,0,2,"",97
"2021-10-05 04:05:00",12.8,12.3,16.4,0.0,0,997.1,1,2,"",97
"2021-10-05 04:06:00",12.8,12.3,16.4,0.0,0,997.1,0,1,"",97
"2021-10-05 04:07:00",12.8,12.3,16.4,0.0,0,997.1,0,1,"",97
"2021-10-05 04:08:00",12.8,12.3,16.4,0.0,0,997.1,1,1,"",97
"2021-10-05 04:09:00",12.8,12.3,16.4,0.0,0,997.1,1,2,"",97
"2021-10-05 04:10:00",12.8,12.3,16.4,0.0,0,997.1,1,2,"",97
"2021-10-05 04:11:00",12.8,12.3,16.4,0.0,0,997.1,1,2,"",97
"2021-10-05 04:12:00",12.8,12.3,16.4,0.0,0,997.2,1,2,"",97
"2021-10-05 04:13:00",12.7,12.2,16.4,0.0,0,997.3,1,2,"",97
"2021-10-05 04:14:00",12.7,12.2,16.4,0.0,0,997.3,2,2,"",97
"2021-10-05 04:15:00",12.7,12.2,16.4,0.0,0,997.3,1,3,"",97
"2021-10-05 04:16:00",12.7,12.2,16.4,0.0,0,997.3,1,1,"",97
"2021-10-05 04:17:00",12.7,12.2,16.4,0.0,0,997.2,2,3,"",97
"2021-10-05 04:18:00",12.7,12.2,16.4,0.0,0,997.1,0,1,"",97
"2021-10-05 04:19:00",12.7,12.2,16.4,0.0,0,997.0,0,2,"",97
"2021-10-05 04:20:00",12.7,12.2,16.4,0.0,0,996.9,2,3,"",97
"2021-10-05 04:21:00",12.7,12.2,16.4,0.0,0,997.0,2,3,"",97
"2021-10-05 04:22:00",12.7,12.2,16.4,0.0,0,997.1,1,2,"",97
"2021-10-05 04:23:00",12.7,12.2,16.4,0.0,0,997.1,0,1,"",97
"2021-10-05 04:24:00",12.7,12.2,16.4,0.0,0,997.1,0,1,"",97
"2021-10-05 04:25:00",12.7,12.2,16.6,0.0,0,997.1,1,2,"",97
"2021-10-05 04:26:00",12.7,12.2,16.6,0.0,0,997.1,2,5,"",97
"2021-10-05 04:27:00",12.7,12.2,16.6,0.0,0,997.1,1,2,"",97
"2021-10-05 04:28:00",12.6,12.1,16.6,0.0,0,997.2,1,2,"",97
"2021-10-05 04:29:00",12.7,12.2,16.6,0.0,0,997.1,1,2,"",97
"2021-10-05 04:30:00",12.6,12.1,16.6,0.0,0,997.1,1,2,"",97
"2021-10-05 04:31:00",12.6,12.1,16.6,0.0,0,997.1,0,1,"",97
"2021-10-05 04:32:00",12.6,12.1,16.6,0.0,0,997.0,0,1,"",97
"2021-10-05 04:33:00",12.7,12.2,16.6,0.0,0,997.0,0,1,"",97
"2021-10-05 04:34:00",12.6,12.1,16.6,0.0,0,996.9,0,1,"",97
"2021-10-05 04:35:00",12.6,12.1,16.6,0.0,0,996.8,0,1,"",97
"2021-10-05 04:36:00",12.6,12.1,16.6,0.0,0,996.6,0,1,"",97
"2021-10-05 04:37:00",12.6,12.1,16.6,0.0,0,996.7,1,3,"",97
"2021-10-05 04:38:00",12.6,12.1,16.6,0.0,0,996.9,1,2,"",97
"2021-10-05 04:39:00",12.6,12.1,16.6,0.0,0,997.0,1,2,"",97
"2021-10-05 04:40:00",12.6,12.1,16.6,0.0,0,996.9,1,1,"",97
"2021-10-05 04:41:00",12.6,12.1,16.6,0.0,0,996.9,0,1,"",97
"2021-10-05 04:42:00",12.6,12.1,16.6,0.0,0,996.8,0,1,"",97
"2021-10-05 04:43:00",12.6,12.1,16.6,0.0,0,996.8,1,1,"",97
"2021-10-05 04:44:00",12.6,12.1,16.6,0.0,0,996.8,1,1,"",97
"2021-10-05 04:45:00",12.6,12.1,16.6,0.0,0,996.9,1,2,"",97
"2021-10-05 04:46:00",12.6,12.1,16.6,0.0,0,996.9,1,2,"",97
"2021-10-05 04:47:00",12.5,12.0,16.6,0.0,0,996.9,1,2,"",97
"2021-10-05 04:48:00",12.6,12.1,16.6,0.0,0,996.8,0,1,"",97
"2021-10-05 04:49:00",12.6,12.1,16.6,0.0,0,996.8,1,2,"",97
"2021-10-05 04:50:00",12.5,12.0,16.6,0.0,0,996.8,0,2,"",97
"2021-10-05 04:51:00",12.6,12.1,16.6,0.0,0,996.8,1,1,"",97
"2021-10-05 04:52:00",12.6,12.1,16.6,0.0,0,996.8,0,1,"",97
"2021-10-05 04:53:00",12.5,12.0,16.6,0.0,0,996.8,0,1,"",97
"2021-10-05 04:54:00",12.5,12.0,16.6,0.0,0,996.7,1,1,"",97
"2021-10-05 04:55:00",12.5,12.0,16.6,0.0,0,996.7,1,1,"",97
"2021-10-05 04:56:00",12.5,12.0,16.6,0.0,0,996.7,1,1,"",97
"2021-10-05 04:57:00",12.5,12.0,16.6,0.0,0,996.8,1,2,"",97
"2021-10-05 04:58:00",12.5,12.0,16.6,0.0,0,996.8,1,2,"",97
"2021-10-05 04:59:00",12.5,12.0,16.6,0.0,0,996.8,1,2,"",97
"2021-10-05 05:00:00",12.5,12.0,16.6,0.0,0,996.8,0,1,"",97
"2021-10-05 05:01:00",12.5,12.0,16.6,0.0,0,996.8,0,1,"",97
"2021-10-05 05:02:00",12.5,12.0,16.6,0.0,0,996.8,0,1,"",97
"2021-10-05 05:03:00",12.4,11.9,16.6,0.0,0,996.7,0,1,"",97
"2021-10-05 05:04:00",12.4,11.9,16.6,0.0,0,996.7,0,0,"",97
"2021-10-05 05:05:00",12.4,11.9,16.6,0.0,0,996.7,0,1,"",97
"2021-10-05 05:06:00",12.5,12.0,16.6,0.0,0,996.7,0,1,"",97
"2021-10-05 05:07:00",12.5,12.0,16.6,0.0,0,996.7,0,1,"",97
"2021-10-05 05:08:00",12.4,11.9,16.6,0.0,0,996.8,1,1,"",97
"2021-10-05 05:09:00",12.4,11.9,16.6,0.0,0,996.7,0,1,"",97
"2021-10-05 05:10:00",12.4,11.9,16.6,0.0,0,996.8,0,1,"",97
"2021-10-05 05:11:00",12.4,11.9,16.6,0.0,0,996.8,0,1,"",97
"2021-10-05 05:12:00",12.4,11.9,16.6,0.0,0,996.8,1,1,"",97
"2021-10-05 05:13:00",12.4,11.9,16.6,0.0,0,996.7,0,1,"",97
"2021-10-05 05:14:00",12.4,11.9,16.6,0.0,0,996.6,0,1,"",97
"2021-10-05 05:15:00",12.4,11.9,16.6,0.0,0,996.6,0,1,"",97
"2021-10-05 05:16:00",12.4,11.9,16.6,0.0,0,996.5,0,1,"",97
"2021-10-05 05:17:00",12.4,11.9,16.6,0.0,0,996.5,0,1,"",97
"2021-10-05 05:18:00",12.4,11.9,16.6,0.0,0,996.5,0,1,"",97
"2021-10-05 05:19:00",12.4,11.9,16.6,0.0,0,996.6,0,1,"",97
"2021-10-05 05:20:00",12.4,11.9,16.6,0.0,0,996.6,0,1,"",97
"2021-10-05 05:21:00",12.4,11.9,16.6,0.0,0,996.6,0,1,"",97
"2021-10-05 05:22:00",12.4,11.9,16.6,0.0,0,996.6,1,1,"",97
"2021-10-05 05:23:00",12.4,11.9,16.6,0.0,0,996.6,1,2,"",97
"2021-10-05 05:24:00",12.4,11.9,16.6,0.0,0,996.7,1,1,"",97
"2021-10-05 05:25:00",12.4,11.9,16.6,0.0,0,996.7,1,1,"",97
"2021-10-05 05:26:00",12.4,11.9,16.6,0.0,0,996.7,0,1,"",97
"2021-10-05 05:27:00",12.4,11.9,16.6,0.0,0,996.7,0,1,"",97
"2021-10-05 05:28:00",12.4,11.9,16.6,0.0,0,996.7,0,1,"",97
"2021-10-05 05:29:00",12.4,11.9,16.6,0.0,0,996.7,0,1,"",97
"2021-10-05 05:30:00",12.4,11.9,16.6,0.0,0,996.7,0,1,"",97
"2021-10-05 05:31:00",12.4,11.9,16.6,0.0,0,996.7,0,1,"",97
"2021-10-05 05:32:00",12.4,11.9,16.6,0.0,0,996.7,0,1,"",97
"2021-10-05 05:33:00",12.3,11.8,16.6,0.0,0,996.8,0,1,"",97
"2021-10-05 05:34:00",12.3,11.8,16.6,0.0,0,996.8,0,1,"",97
"2021-10-05 05:35:00",12.3,11.8,16.6,0.0,0,996.8,1,1,"",97
"2021-10-05 05:36:00",12.3,11.8,16.6,0.0,0,996.9,0,1,"",97
"2021-10-05 05:37:00",12.3,11.8,16.6,0.0,0,996.9,0,1,"",97
"2021-10-05 05:38:00",12.3,11.8,16.6,0.0,0,997.0,0,0,"",97
"2021-10-05 05:39:00",12.3,11.8,16.6,0.0,0,997.0,0,0,"",97
"2021-10-05 05:40:00",12.3,11.8,16.6,0.0,0,997.0,0,0,"",97
"2021-10-05 05:41:00",12.3,11.8,16.6,0.0,0,997.0,0,0,"",97
"2021-10-05 05:42:00",12.3,11.8,16.6,0.0,0,997.0,0,0,"",97
"2021-10-05 05:43:00",12.2,11.7,16.6,0.0,0,997.0,0,1,"",97
"2021-10-05 05:44:00",12.2,11.7,16.6,0.0,0,997.0,0,2,"",97
"2021-10-05 05:45:00",12.2,11.7,16.6,0.0,0,997.0,0,1,"",97
"2021-10-05 05:46:00",12.2,11.7,16.6,0.0,0,997.1,0,1,"",97
"2021-10-05 05:47:00",12.2,11.7,16.6,0.0,0,997.1,1,1,"",97
"2021-10-05 05:48:00",12.2,11.7,16.6,0.0,0,997.1,0,1,"",97
"2021-10-05 05:49:00",12.2,11.7,16.6,0.0,0,997.1,1,2,"",97
"2021-10-05 05:50:00",12.1,11.6,16.6,0.0,0,997.1,0,1,"",97
"2021-10-05 05:51:00",12.1,11.6,16.6,0.0,0,997.1,0,1,"",97
"2021-10-05 05:52:00",12.1,11.6,16.6,0.0,0,997.1,0,1,"",97
"2021-10-05 05:53:00",12.1,11.6,16.6,0.0,0,997.1,0,1,"",97
"2021-10-05 05:54:00",12.1,11.6,16.6,0.0,0,997.1,0,0,"",97
"2021-10-05 05:55:00",12.1,11.6,16.6,0.0,0,997.1,0,0,"",97
"2021-10-05 05:56:00",12.1,11.6,16.6,0.0,0,997.1,0,2,"",97
"2021-10-05 05:57:00",12.1,11.5,16.6,0.0,0,997.1,0,1,"",96
"2021-10-05 05:58:00",12.0,11.4,16.6,0.0,0,997.1,1,2,"",96
"2021-10-05 05:59:00",12.0,11.4,16.6,0.0,0,997.1,0,1,"",96
"2021-10-05 06:00:00",11.9,11.3,16.6,0.0,0,997.1,1,2,"",96
"2021-10-05 06:01:00",11.9,11.3,16.6,0.0,0,997.0,1,1,"",96
"2021-10-05 06:02:00",11.9,11.3,16.6,0.0,0,997.1,0,1,"",96
"2021-10-05 06:03:00",11.8,11.2,16.6,0.0,0,997.1,0,1,"",96
"2021-10-05 06:04:00",11.9,11.3,16.6,0.0,0,997.1,0,1,"",96
"2021-10-05 06:05:00",11.8,11.2,16.6,0.0,0,997.1,0,1,"",96
"2021-10-05 06:06:00",11.8,11.3,16.6,0.0,0,997.1,0,1,"",97
"2021-10-05 06:07:00",11.8,11.3,16.6,0.0,0,997.1,1,2,"",97
"2021-10-05 06:08:00",11.8,11.3,16.6,0.0,0,997.1,0,1,"",97
"2021-10-05 06:09:00",11.8,11.3,16.6,0.0,0,997.1,0,1,"",97
"2021-10-05 06:10:00",11.8,11.2,16.6,0.0,0,997.1,0,1,"",96
"2021-10-05 06:11:00",11.7,11.1,16.6,0.0,0,997.1,0,0,"",96
"2021-10-05 06:12:00",11.7,11.1,16.6,0.0,0,997.1,0,0,"",96
"2021-10-05 06:13:00",11.7,11.1,16.6,0.0,0,997.1,0,1,"",96
"2021-10-05 06:14:00",11.7,11.1,16.6,0.0,0,997.1,0,1,"",96
"2021-10-05 06:15:00",11.6,11.0,16.6,0.0,0,997.1,0,0,"",96
"2021-10-05 06:16:00",11.6,11.0,16.6,0.0,0,997.1,0,0,"",96
"2021-10-05 06:17:00",11.6,11.0,16.6,0.0,0,997.1,0,1,"",96
"2021-10-05 06:18:00",11.6,11.0,16.6,0.0,0,997.1,0,0,"",96
"2021-10-05 06:19:00",11.5,10.9,16.6,0.0,0,997.0,0,1,"",96
"2021-10-05 06:20:00",11.5,10.9,16.6,0.0,0,997.1,0,0,"",96
"2021-10-05 06:21:00",11.4,10.8,16.6,0.0,0,997.1,0,0,"",96
"2021-10-05 06:22:00",11.4,10.8,16.6,0.0,0,997.1,0,0,"",96
"2021-10-05 06:23:00",11.4,10.8,16.6,0.0,0,997.1,0,2,"",96
"2021-10-05 06:24:00",11.4,10.8,16.6,0.0,0,997.1,0,1,"",96
"2021-10-05 06:25:00",11.4,10.8,16.6,0.0,0,997.1,0,1,"",96
"2021-10-05 06:26:00",11.4,10.8,16.6,0.0,0,997.1,0,1,"",96
"2021-10-05 06:27:00",11.3,10.7,16.6,0.0,0,997.1,0,1,"",96
"2021-10-05 06:28:00",11.3,10.7,16.6,0.0,0,997.1,0,1,"",96
"2021-10-05 06:29:00",11.3,10.7,16.6,0.0,0,997.0,1,1,"",96
"2021-10-05 06:30:00",11.3,10.7,16.6,0.0,0,997.1,0,1,"",96
"2021-10-05 06:31:00",11.3,10.7,16.6,0.0,0,997.1,0,1,"",96
"2021-10-05 06:32:00",11.2,10.6,16.6,0.0,0,997.1,0,1,"",96
"2021-10-05 06:33:00",11.2,10.6,16.6,0.0,0,997.1,0,1,"",96
"2021-10-05 06:34:00",11.2,10.6,16.6,0.0,0,997.1,0,1,"",96
"2021-10-05 06:35:00",11.2,10.6,16.6,0.0,0,997.1,0,1,"",96
"2021-10-05 06:36:00",11.2,10.6,16.6,0.0,0,997.1,0,1,"",96
"2021-10-05 06:37:00",11.2,10.6,16.6,0.0,0,997.1,0,0,"",96
"2021-10-05 06:38:00",11.1,10.5,16.6,0.0,0,997.1,0,1,"",96
"2021-10-05 06:39:00",11.1,10.5,16.6,0.0,0,997.1,0,0,"",96
"2021-10-05 06:40:00",11.1,10.5,16.6,0.0,0,997.1,0,1,"",96
"2021-10-05 06:41:00",11.1,10.5,16.6,0.0,0,997.1,0,1,"",96
"2021-10-05 06:42:00",11.0,10.4,16.6,0.0,0,997.1,0,1,"",96
"2021-10-05 06:43:00",11.0,10.4,16.6,0.0,0,997.2,0,1,"",96
"2021-10-05 06:44:00",10.9,10.3,16.6,0.0,0,997.2,0,1,"",96
"2021-10-05 06:45:00",10.9,10.3,16.6,0.0,0,997.2,1,1,"",96